Regional Weather Roundup
Issued by NWS

Home | Current Version | Previous Version | Text Only | Print | Product List | Glossary Off
Versions: 1 2 3 4 5 6 7 8 9 10 11 12 13 14 15 16 17 18 19 20 21 22 23 24 25 26 27 28 29 30 31 32 33 34 35 36 37 38 39 40 41 42 43 44 45 46 47 48 49 50

000
ASUS43 KDTX 241310
RWRMI
MICHIGAN HOURLY REGIONAL WEATHER ROUNDUP
NATIONAL WEATHER SERVICE DETROIT/PONTIAC MI
900 AM EDT SUN MAY 24 2015

NOTE: "FAIR" INDICATES FEW OR NO CLOUDS BELOW 12,000 FEET WITH NO
SIGNIFICANT WEATHER AND/OR OBSTRUCTION TO VISIBILITY.

MIZ047>049-052>055-059>063-066>070-074>076-081>083-241400-
SOUTHEAST LOWER MICHIGAN

CITY           SKY/WX    TMP DP  RH WIND       PRES   REMARKS
ADRIAN         MOSUNNY   63  50  62 SW5       30.28F
ALMA           PTSUNNY   64  51  61 SW5       30.23S
ANN ARBOR      MOSUNNY   64  52  64 CALM      30.26F
BAD AXE        SUNNY     65  44  47 CALM      30.23F
CARO           MOSUNNY   65  51  60 SW3       30.23F
DETROIT CITY   PTSUNNY   66  48  52 SW6       30.27F
DETROIT        PTSUNNY   65  50  58 S3        30.27F
FLINT          PTSUNNY   68  48  48 SW7       30.25F
GROSSE ILE     MOSUNNY   64  52  63 S3        30.26F
HILLSDALE      PTSUNNY   67  49  53 S6        30.27S
HOWELL         PTSUNNY   65  48  54 SW3       30.25F

CITY           SKY/WX    TMP DP  RH WIND       PRES   REMARKS
JACKSON        PTSUNNY   66  51  58 SW5       30.26F
LAMBERTVILLE   MOSUNNY   68  46  45 SW6       30.28S
LANSING        PTSUNNY   66  50  56 S5        30.25S
LAPEER         FAIR      68  45  43 W6        30.25S
MASON          PTSUNNY   64  49  57 CALM      30.25F
MONROE         MOSUNNY   66  52  59 SW5       30.26S
MT. CLEMENS    PTSUNNY   66  50  56 SW6       30.23F
PONTIAC        PTSUNNY   66  48  52 W7        30.25F
PORT HOPE        N/A     65  43  44 SW7       30.21F
PORT HURON     SUNNY     63  50  63 SW5       30.25F
TRI CITIES     PTSUNNY   66  48  52 SW8       30.23F
MIDLAND        FAIR      63  49  59 CALM      30.21F
TROY           PTSUNNY   65  48  52 SW5       30.27F
SAGINAW HB     PTSUNNY   66  45  45 SW9       30.22F
$$
MIZ043>046-050>051-056>058-064>065-071>073-077>080-241400-
SOUTHWEST LOWER MICHIGAN

CITY           SKY/WX    TMP DP  RH WIND       PRES   REMARKS
BATTLE CREEK   PTSUNNY   67  51  56 S7        30.25F
BENTON HARBOR  CLOUDY    61  50  67 SE7       30.20F
BIG RAPIDS     PTSUNNY   58  48  67 CALM      30.22R
COLDWATER      CLOUDY    63  51  64 S6        30.25F
FREMONT        FAIR      61  46  58 SE3       30.21S
HOLLAND        PTSUNNY   64  51  62 S6        30.22F
GRAND RAPIDS   PTSUNNY   66  50  56 S7        30.22F
IONIA          FAIR      66  48  53 SW3       30.23S
KALAMAZOO      PTSUNNY   66  51  58 S5        30.24F
LUDINGTON      PTSUNNY   66  49  53 S3        30.18S
MARSHALL       PTSUNNY   65  50  58 CALM      30.25S
MOUNT PLEASANT MOSUNNY   66  49  53 SW3       30.22R
MUSKEGON       PTSUNNY   65  49  56 SE5       30.21S
SOUTH HAVEN    PTSUNNY   66  48  51 S6        30.21F
$$
MIZ016>042-241400-
NORTHERN LOWER MICHIGAN

CITY           SKY/WX    TMP DP  RH WIND       PRES   REMARKS
ALPENA         CLOUDY    62  43  49 SW5       30.20F
BEAVER ISLAND  CLOUDY    63  40  43 SW7       30.17F
BELLAIRE       PTSUNNY   59  46  61 CALM      30.19F
CADILLAC       MOSUNNY   64  47  54 S3        30.20S
CHARLEVOIX     CLOUDY    58  44  59 E3        30.21F
FRANKFORT      MOSUNNY   66  45  46 CALM      30.17F
GAYLORD        PTSUNNY   62  43  49 SW3       30.21F
GRAYLING       PTSUNNY   61  43  51 CALM      30.21F
HARBOR SPRINGS CLOUDY    58  42  55 CALM      30.19F
HOUGHTON LAKE  MOSUNNY   65  43  44 SW5       30.22F
MANISTEE       PTSUNNY   61  45  55 E5        30.19S
OSCODA         PTSUNNY   63  44  50 SW6       30.20F
PELLSTON       CLOUDY    64  41  42 W3        30.19F
ROGERS CITY    CLOUDY    66  42  42 W8        30.19F
TRAVERSE CITY  PTSUNNY   64  44  48 NE3       30.17F
$$
MIZ007>008-015-241400-
EASTERN UPPER MICHIGAN

CITY           SKY/WX    TMP DP  RH WIND       PRES   REMARKS
KINROSS        MOSUNNY   59  45  58 SW6       30.16F
MACKINAC ISLAN CLOUDY    59  41  52 SW7       30.17F
NEWBERRY       CLOUDY    60  44  54 SW12      30.15F
S. S. MARIE    SUNNY     56  41  57 CALM      30.15F
MUNISING         N/A     63  43  48 SW6       30.12F
$$
MIZ004>006-011>014-085-241400-
CENTRAL UPPER MICHIGAN

CITY           SKY/WX    TMP DP  RH WIND       PRES   REMARKS
MANISTIQUE     CLOUDY    53  46  76 CALM      30.15F
ESCANABA       CLOUDY    61  48  63 E5        30.14F
MENOMINEE      PTSUNNY   64  46  52 CALM      30.13F
SAWYER-GWINN   PTSUNNY   57  43  58 CALM      30.15F
$$
MIZ001>003-009>011-084-241400-
WESTERN UPPER MICHIGAN

CITY           SKY/WX    TMP DP  RH WIND       PRES   REMARKS
IRON MOUNTAIN  PTSUNNY   63  48  58 CALM      30.13F
HOUGHTON       SUNNY     66  44  45 W12       30.10F
COPPER HARBOR    N/A     64  44  48 VRB3      30.07F
IRONWOOD       PTSUNNY   57  48  72 CALM      30.10F
$$

ABBREVIATIONS USED IN REMARKS
   TC - TEMPERATURE IN CELSIUS
  WCI - WIND CHILL INDEX
   HX - HEAT INDEX
  VSB - VISIBILITY



USA.gov is the U.S. government's official web portal to all federal, state and local government web resources and services.